Impacts METAR Board INFO
IDs:

KSLC - Salt Lake City Intl, UT, US

Updated at: 1157 UTC 18 Jan 2018
Potential Impact None Slight Moderate High
Time17/23Z 18/00Z 18/01Z 18/02Z 18/03Z 18/04Z 18/05Z 18/06Z 18/07Z 18/08Z 18/09Z 18/10Z 18/11Z
VIS10 10 10 10 10 10 10 10 10 10 10 10 10
CIG250 240 240 240 230 240 230 230 230 230 220 220 --
CoverBKNBKNBKNBKNBKNBKNBKNBKNBKNBKNBKNBKNSCT
FltCatVFRVFRVFRVFRVFRVFRVFRVFRVFRVFRVFRVFRVFR
WX--------------------------
WDir350330290250150150130130120120190110110
WSpd9 9 7 3 4 6 6 6 4 5 4 7 4
WGst-- -- -- -- -- -- -- -- -- -- -- -- --
Raw hourly METARs
KSLC 172254Z 35009KT 10SM FEW110 SCT200 BKN250 10/02 A3035 RMK AO2 SLP276 T01000017
KSLC 172354Z 33009KT 10SM FEW110 SCT200 BKN240 08/00 A3036 RMK AO2 SLP279 T00830000 10128 20056 51009
KSLC 180054Z 29007KT 10SM SCT170 BKN240 06/01 A3036 RMK AO2 SLP285 T00610006
KSLC 180154Z 25003KT 10SM FEW100 SCT180 BKN240 04/M01 A3036 RMK AO2 SLP280 T00391006
KSLC 180254Z 15004KT 10SM SCT160 BKN230 04/M01 A3035 RMK AO2 SLP276 T00391006 58002
KSLC 180354Z 15006KT 10SM SCT170 BKN240 04/M01 A3033 RMK AO2 SLP277 T00391006
KSLC 180454Z 13006KT 10SM FEW160 BKN230 03/M01 A3033 RMK AO2 SLP273 T00331006
KSLC 180554Z 13006KT 10SM FEW150 BKN230 03/M01 A3032 RMK AO2 SLP266 T00331011 10083 20028 56010
KSLC 180654Z 12004KT 10SM FEW150 BKN230 04/M02 A3031 RMK AO2 SLP257 T00441017 401281006
KSLC 180754Z 12005KT 10SM FEW150 BKN230 03/M02 A3028 RMK AO2 SLP246 T00331017
KSLC 180854Z 19004KT 10SM FEW150 BKN220 03/M02 A3026 RMK AO2 SLP240 T00281022 58015
KSLC 180954Z 11007KT 10SM BKN220 02/M02 A3025 RMK AO2 SLP236 T00221022
KSLC 181054Z 11004KT 10SM SCT200 03/M03 A3023 RMK AO2 SLP231 T00281028